Holloman AFB, NM

3:41 PM MST on December 06, 2016 (GMT -0700)
Holloman Air Force Base

Weather History for KHMN - March, 2013

Change the Weather History Date:

Tuesday, March 19, 2013

  Actual Average Record
Temperature  
Mean Temperature 60 °F -  
Max Temperature 73 °F 68 °F 82 °F (2004)
Min Temperature 46 °F 37 °F 26 °F (1999)
Degree Days  
Heating Degree Days 6    
Growing Degree Days 10 (Base 50)    
Moisture  
Dew Point 12 °F    
Average Humidity 15    
Maximum Humidity 24    
Minimum Humidity 10    
Precipitation  
Precipitation 0.00 in - - ()
Sea Level Pressure  
Sea Level Pressure 29.90 in    
Wind  
Wind Speed 7 mph (NE)    
Max Wind Speed 20 mph    
Max Gust Speed -    
Visibility 10 miles    
Events      
Averages and records for this station are not official NWS values.
T = Trace of Precipitation, MM = Missing Value Source: NWS Daily Summary

Daily Weather History Graph

Daily Weather History Graph

Search for Another Location

Airport or City:

Trip Planner

Search our weather history database for the weather conditions in past years. The results will help you decide how hot, cold, wet, or windy it might be!

Date:

Astronomy

Mar. 19, 2013 Rise Set
Actual Time 7:09 AM MDT 7:15 PM MDT
Civil Twilight 6:44 AM MDT 7:40 PM MDT
Nautical Twilight 6:15 AM MDT 8:08 PM MDT
Astronomical Twilight 5:46 AM MDT 8:37 PM MDT
Moon 12:19 PM MDT (3/19) 1:47 AM MDT (3/19)
Length of Visible Light 12h 55m
Length of Day
12h 06m
Waxing Crescent, 50% of the Moon is Illuminated
Mar 19
Waxing Crescent
Mar 27
Full
Apr 2
Last Quarter
Apr 10
New
Apr 18
First Quarter

Hourly Weather History & Observations

Time (MDT) Temp. Windchill Dew Point Humidity Pressure Visibility Wind Dir Wind Speed Gust Speed Precip Events Conditions
12:58 AM 50.5 °F - 5.7 °F 16% 29.83 in 10.0 mi ESE 3.5 mph - N/A   Clear
1:58 AM 46.9 °F - 4.3 °F 17% 29.84 in 10.0 mi ENE 4.6 mph - N/A   Clear
2:58 AM 47.3 °F - 6.4 °F 19% 29.98 in 10.0 mi SE 6.9 mph - N/A   Clear
3:58 AM 47.1 °F - 5.7 °F 18% 29.96 in 10.0 mi East 4.6 mph - N/A   Clear
4:58 AM 46.6 °F - 6.1 °F 19% 29.97 in 10.0 mi SSE 8.1 mph - N/A   Partly Cloudy
5:58 AM 46.4 °F 42.4 °F 7.5 °F 21% 29.98 in 10.0 mi SSE 8.1 mph - N/A   Clear
6:58 AM 49.1 °F - 9.0 °F 20% 29.99 in 10.0 mi SSE 9.2 mph - N/A   Clear
7:58 AM 49.5 °F - 10.0 °F 20% 30.00 in 10.0 mi SSE 5.8 mph - N/A   Clear
8:58 AM 57.4 °F - 11.7 °F 16% 29.89 in 10.0 mi South 8.1 mph - N/A   Clear
9:58 AM 60.1 °F - 12.4 °F 15% 29.89 in 10.0 mi South 8.1 mph - N/A   Clear
10:58 AM 64.8 °F - 13.1 °F 13% 29.89 in 10.0 mi Variable 5.8 mph - N/A   Partly Cloudy
11:58 AM 68.7 °F - 12.6 °F 11% 29.88 in 10.0 mi WSW 6.9 mph - N/A   Partly Cloudy
12:58 PM 71.6 °F - 12.6 °F 10% 29.86 in 10.0 mi Variable 6.9 mph - N/A   Scattered Clouds
1:58 PM 73.0 °F - 15.8 °F 11% 29.85 in 10.0 mi WSW 8.1 mph - N/A   Scattered Clouds
2:58 PM 72.9 °F - 14.5 °F 11% 29.83 in 10.0 mi NW 8.1 mph - N/A   Clear
3:58 PM 72.1 °F - 13.1 °F 10% 29.83 in 10.0 mi NNW 9.2 mph - N/A   Clear
4:58 PM 72.7 °F - 13.5 °F 10% 29.83 in 10.0 mi NW 6.9 mph - N/A   Clear
5:55 PM 71.6 °F - 14.0 °F 11% 29.83 in 10.0 mi NW 6.9 mph - N/A   Clear
5:58 PM 72.7 °F - 13.5 °F 10% 29.82 in 10.0 mi North 8.1 mph - N/A   Clear
6:55 PM 69.8 °F - 14.0 °F 12% 29.85 in 10.0 mi NNE 9.2 mph - N/A   Partly Cloudy
6:58 PM 70.5 °F - 14.0 °F 11% 29.84 in 10.0 mi NNE 9.2 mph - N/A   Clear
7:58 PM 63.3 °F - 13.6 °F 14% 29.90 in 10.0 mi North 11.5 mph - N/A   Clear
8:58 PM 61.9 °F - 19.4 °F 19% 29.93 in 10.0 mi North 15.0 mph - N/A   Clear
9:58 PM 62.8 °F - 19.0 °F 19% 29.95 in 10.0 mi NE 19.6 mph - N/A   Overcast
10:58 PM 61.3 °F - 20.5 °F 21% 29.97 in 10.0 mi NNE 3.5 mph - N/A   Clear
11:58 PM 56.1 °F - 19.2 °F 24% 29.98 in 10.0 mi SSW 2.3 mph - N/A   Clear